Current weather by "City, St" or "zip code"  
 

Current Conditions: Elk City Regional Business Airport, OK

Overcast


65.0 F

Last Updated on Oct 21 2021, 11:55 am CDT
Humidity: 38%
Wind Speed: E 5.8 mph
Barometer 30.30 in
Dewpoint: 38.3 F
Visibility: 10.00 mi
Precip: --
Heat Index: NA
Wind Chill: NA
Current conditions at:

Elk City Regional Business Airport, OK (KELK)

Lat: 35.4308 Lon: 99.3943

Local Radar Image active severe weather and emergency alerts image image weather storm and storm spotter reports image weather observation monitoring service image
Local
Radar
Active
Alerts
Storm Reports Obs
Monitoring

Sign-up For Email & Text Message Weather Alert Notification Services



Advertise Here

Observation History for Elk City Regional Business Airport, OK


Time Wind
(mph)
Vis
(mi)
Weather Precip (in) Temperature (F) Relative
Humidity
Wind
Chill
(F)
Heat
Index
(F)
Pressure
Air Dwpt altimeter
(in)
sea level
(mb)
Rmks
11:55 am CDT E 5.8 10.00 Overcast -- 65.0 38.3 38% NA NA 30.30 M
10:55 am CDT N 0.0 10.00 Overcast -- 62.0 38.3 42% NA NA 30.32 M
9:55 am CDT N 0.0 10.00 Partly Cloudy -- 59.0 39.6 49% NA NA 30.31 M
8:55 am CDT N 0.0 10.00 Fair -- 48.0 42.1 80% NA NA 30.28 M
7:55 am CDT N 0.0 10.00 Fair -- 42.0 38.1 87% NA NA 30.28 M
6:55 am CDT NW 6.9 10.00 Fair -- 44.0 37.9 80% 40 NA 30.28 M
5:55 am CDT N 0.0 10.00 Fair -- 44.0 38.3 79% NA NA 30.26 M
4:55 am CDT N 0.0 10.00 Fair -- 46.0 38.5 77% NA NA 30.24 M
3:55 am CDT NE 5.8 10.00 Fair -- 47.0 37.6 70% 44 NA 30.24 M
2:55 am CDT NE 8.1 10.00 Fair -- 49.0 38.3 67% 46 NA 30.23 M
1:55 am CDT NE 10.4 10.00 Fair -- 49.0 38.8 68% 45 NA 30.22 M
12:55 am CDT N 0.0 10.00 Fair -- 48.0 39.6 72% NA NA 30.23 M
11:55 pm CDT N 0.0 10.00 Fair -- 51.0 39.0 64% NA NA 30.24 M
10:55 pm CDT N 0.0 10.00 Fair -- 50.0 41.4 72% NA NA 30.24 M
9:55 pm CDT N 0.0 10.00 Fair -- 52.0 41.9 69% NA NA 30.22 M
8:55 pm CDT N 0.0 10.00 Fair -- 55.0 41.7 61% NA NA 30.21 M
7:55 pm CDT N 0.0 10.00 Fair -- 60.0 39.2 46% NA NA 30.19 M
6:55 pm CDT N 0.0 10.00 Fair -- 64.0 37.9 39% NA NA 30.17 M
5:55 pm CDT NE 6.9 10.00 Fair -- 70.0 36.3 29% NA NA 30.16 M
4:55 pm CDT NE 9.2 10.00 Fair -- 72.0 36.0 27% NA NA 30.15 M
3:55 pm CDT N 10.4 10.00 Fair -- 73.0 35.6 26% NA NA 30.15 M
2:55 pm CDT N 10.4 10.00 Fair -- 72.0 36.3 28% NA NA 30.16 M
1:55 pm CDT NE 12.7 G 18.4 10.00 Fair -- 70.0 36.9 29% NA NA 30.18 M
12:55 pm CDT N 19.6 G 23.0 10.00 Fair -- 68.0 37.0 33% NA NA 30.18 M

Regional Weather Observation


Clinton, Clinton-Sherman Airport, OK (KCSM)

A Few Clouds
66.0 F

Clinton, Clinton Regional Airport, OK (KCLK)

Thunderstorm Light Rain
72.0 F

Canadian, Hemphill County Airport, TX (KHHF)

Mostly Cloudy
65.0 F

Gage, Gage Airport, OK (KGAG)

Fair
70.0 F

Weatherford, Thomas P Stafford Airport, OK (KOJA)

Fair
66.0 F

Woodward, West Woodward Airport, OK (KWWR)

Partly Cloudy
64.0 F

Advertise Here


Advertise Here